Dewpoint
33 31 30 31 32 31 30 28 28 22 22 24 25 24 25 26 30 25 24 32 31 32 33 32 33 34 36 36 36 36 37 37 37 37 38 38 38 38
30 27 28 29 30 30 31 28 27 24 19 22 22 23 25 24 28 25 26 35 31 31 31 32 32 34 34 34 35 36 36 36 36 37 37 37 37 37
27 25 26 27 27 28 29 28 26 25 22 23 24 24 23 25 25 26 28 25 26 31 30 31 32 33 34 34 35 36 36 36 36 35 36 37 37 37
24 24 24 22 26 27 28 26 25 25 25 23 24 25 24 24 23 24 24 23 25 29 29 30 31 32 33 34 34 34 34 33 34 35 35 36 36 36
24 23 26 26 26 27 26 26 27 23 26 25 26 26 26 25 25 25 24 25 24 30 29 30 30 32 33 32 33 33 32 32 32 33 34 34 35 35
27 25 25 26 27 28 26 26 25 26 26 26 26 26 26 27 26 25 26 27 27 24 28 30 32 33 33 32 32 32 32 31 32 33 33 33 33 34
27 26 28 31 34 30 26 27 28 27 26 26 27 26 27 26 25 26 26 26 27 27 28 28 29 30 30 32 32 33 32 31 32 32 33 33 33 33
25 28 30 32 30 30 30 29 29 28 26 27 26 26 24 24 25 26 27 26 26 30 28 29 30 29 29 30 32 31 31 31 32 31 32 32 32 32
28 28 26 27 30 30 30 30 28 30 30 29 28 27 27 27 28 28 28 28 28 30 30 29 29 29 30 27 31 31 31 31 32 31 32 32 32 31
31 30 28 29 29 27 25 26 27 27 27 27 29 29 28 30 31 31 30 29 29 30 30 27 27 26 27 29 32 32 32 32 30 31 32 32 30 31
30 29 28 26 30 29 28 27 26 27 28 32 31 31 31 29 28 29 27 26 25 25 26 25 26 26 26 27 28 31 31 31 32 32 32 30 30 31
28 27 29 26 30 29 28 27 26 25 25 25 26 26 26 26 29 28 27 24 25 23 26 27 28 27 25 26 27 27 28 32 32 32 30 31 30 28
27 26 27 30 29 28 30 29 27 27 27 27 27 25 25 26 28 27 27 24 22 24 26 27 28 26 27 25 25 27 28 28 27 28 31 31 30 30
24 24 26 30 28 29 29 28 26 27 28 26 25 25 26 25 25 26 27 28 28 26 27 28 28 27 27 25 23 26 27 26 27 27 28 30 30 30
26 27 28 28 29 29 29 25 25 26 26 25 24 25 25 24 27 28 27 26 27 26 26 28 24 25 28 26 25 25 26 26 27 26 27 27 26 27
28 28 28 28 29 29 27 26 26 25 23 23 25 25 25 24 26 28 26 26 21 23 26 26 26 27 25 26 27 25 24 23 25 26 27 26 26 26
28 27 26 26 26 26 25 24 24 24 25 25 24 24 26 26 26 26 23 18 22 17 20 23 25 24 26 25 24 24 24 25 26 26 25 24 24 25
27 26 26 25 25 24 24 23 24 24 25 24 24 26 25 24 23 23 22 17 16 18 18 20 21 22 23 23 26 23 23 24 24 24 24 24 23 23
26 26 26 26 25 25 25 24 23 25 25 21 24 25 25 23 23 19 19 21 22 18 19 19 15 17 19 17 21 24 21 23 23 23 23 23 23 23
26 25 25 25 24 24 24 23 24 27 25 25 25 24 22 19 22 14 20 21 18 18 19 16 10 13 19 20 22 23 26 23 23 22 22 23 24 26
25 23 23 24 24 23 24 27 27 26 25 23 23 21 19 20 14 16 17 22 22 15 13 17 20 26 23 22 21 20 22 25 26 23 23 23 23 23
23 23 24 24 23 21 23 26 25 24 23 23 23 22 22 22 21 20 20 20 20 18 17 20 22 18 11 17 20 20 21 23 24 25 25 24 23 21
23 23 22 23 21 23 26 25 24 23 23 23 23 23 23 21 22 22 21 20 19 16 18 19 20 17 18 17 22 23 19 20 21 20 20 24 25 27
Lifted_Index
13 13 13 14 15 15 16 15 14 13 14 17 19 20 21 22 23 24 24 23 23 22 23 23 22 22 21 21 21 20 19 19 19 19 19 18 18 18
13 13 14 14 15 16 16 16 16 15 15 17 19 20 22 23 23 24 24 23 23 23 22 22 22 22 22 21 21 20 19 19 19 19 19 19 19 19
13 14 14 15 15 16 17 17 17 16 16 17 19 21 22 23 23 23 24 23 23 23 22 22 22 22 21 21 20 19 19 19 20 20 19 19 19 19
13 13 14 14 15 16 17 17 18 18 17 17 19 20 22 22 23 23 23 23 23 23 22 22 22 21 21 20 20 19 19 20 20 20 20 20 19 19
14 14 14 15 16 17 17 18 18 18 18 18 18 20 21 22 22 22 22 22 22 22 22 22 21 20 20 20 19 19 20 20 20 20 20 20 19 19
16 16 17 18 18 18 18 18 18 19 19 18 18 20 21 21 21 21 21 22 22 22 21 21 20 20 20 20 20 20 20 20 20 20 19 19 19 18
18 18 19 19 19 19 19 19 19 19 19 19 19 19 20 21 21 21 21 21 21 21 21 21 20 20 20 20 19 19 19 19 19 19 19 18 18 17
18 18 19 19 19 19 20 20 21 20 20 20 19 20 20 21 21 21 21 21 21 21 21 20 20 20 20 19 19 19 19 19 18 18 18 17 16 15
17 17 18 18 19 19 20 21 21 21 21 21 20 21 21 21 21 21 21 21 21 21 20 20 20 20 20 19 19 19 18 18 18 17 16 15 14 13
17 17 18 18 19 20 20 21 21 21 21 21 21 21 21 21 21 21 21 21 21 21 21 21 21 21 20 20 19 18 18 17 16 15 14 13 12 12
18 18 18 19 20 20 21 21 20 21 21 21 21 21 21 21 21 21 21 21 21 21 21 21 21 21 20 19 19 18 17 16 14 13 12 12 12 12
18 19 19 20 20 21 21 20 20 20 21 21 21 21 21 21 21 21 21 21 21 21 21 21 21 20 20 19 18 17 16 14 13 12 11 11 11 11
18 19 20 20 21 21 21 21 20 21 21 21 21 21 21 21 21 21 21 21 21 21 21 21 20 20 19 18 17 16 14 13 12 12 12 11 11 11
19 19 20 21 21 21 21 21 21 21 21 20 20 20 21 21 21 21 21 21 21 21 20 20 20 19 19 17 16 14 13 12 12 12 12 11 10 10
19 20 20 21 21 21 21 21 21 21 20 20 20 20 21 21 21 21 21 21 20 20 20 19 19 18 18 16 14 13 12 12 12 12 11 10 10 9
20 20 20 20 20 20 20 20 20 20 20 20 20 20 21 21 21 21 20 20 20 20 19 19 18 17 16 14 13 12 12 12 11 11 11 10 9 8
19 19 19 19 19 19 19 19 19 20 20 20 20 21 21 20 20 21 21 20 20 19 19 18 17 15 14 13 12 12 12 11 11 11 10 9 8 7
18 18 18 18 18 18 18 19 19 20 20 20 20 20 20 20 20 21 20 20 19 19 18 16 15 14 13 12 12 11 11 11 11 10 9 8 7 6
17 17 17 17 18 18 18 19 19 20 20 21 21 21 21 20 20 20 20 19 19 17 16 15 14 14 13 12 11 11 11 11 10 9 8 7 7 6
17 17 17 17 18 18 18 19 20 20 21 21 21 21 20 20 20 20 19 18 17 16 14 14 14 13 13 12 12 11 10 10 9 8 8 7 6 6
17 17 17 17 18 18 19 20 20 21 21 21 20 20 20 20 19 19 18 17 15 14 14 13 13 13 12 12 11 10 9 8 8 7 7 7 6 6
17 17 17 18 19 20 20 20 20 20 20 20 20 20 20 19 18 17 16 15 14 14 13 13 13 12 12 11 10 9 8 7 7 7 7 7 6 6
17 17 18 19 20 20 21 20 20 20 20 20 20 19 19 19 18 16 15 14 14 13 13 13 12 12 12 11 10 8 7 7 6 6 6 7 6 6